Location: UFOWorks Observatory
(42.1050°N, 72.2350°W)
Time: 15:58:37
(UTC-04:00)

ISS - Visible Passes

Search period start: 20 September 2017 00:00
Search period end: 30 September 2017 00:00
Orbit: 402 x 407 km, 51.6° (Epoch: 21 September)

Date Brightness Start Highest point End Pass type
(mag) Time Alt. Az. Time Alt. Az. Time Alt. Az.
20 Sep -2.3 04:27:01 35° E 04:27:01 35° E 04:29:09 10° ESE visible
20 Sep -2.0 05:59:54 10° W 06:02:03 16° SW 06:04:13 10° S visible
21 Sep -2.7 05:10:35 27° SSW 05:10:35 27° SSW 05:12:51 10° SSE visible
23 Sep -1.4 20:03:06 10° S 20:03:31 12° S 20:03:31 12° S visible
24 Sep -1.6 20:45:52 10° SW 20:46:58 20° SW 20:46:58 20° SW visible
25 Sep -3.3 19:53:46 10° SSW 19:56:50 39° SE 19:57:28 35° ESE visible
26 Sep -2.7 20:37:41 10° WSW 20:40:27 44° WNW 20:40:27 44° WNW visible
27 Sep -3.9 19:45:10 10° SW 19:48:26 85° NW 19:50:32 21° NE visible
27 Sep -0.4 21:22:42 10° WNW 21:23:12 13° WNW 21:23:12 13° WNW visible
28 Sep -2.1 20:29:48 10° W 20:32:41 27° NNW 20:33:07 26° N visible
29 Sep -2.7 19:37:01 10° W 19:40:08 41° NNW 19:42:55 12° NE visible
29 Sep -0.5 21:15:02 10° NW 21:15:34 12° NW 21:15:34 12° NW visible
